Tracking 19176 objects as of 27-May-2018
HD Live streaming from Space Station
objects crossing your sky now

COSMOS 1255

Track COSMOS 1255 now!
10-day predictions
COSMOS 1255 is classified as:


NORAD ID: 12325
Int'l Code: 1981-022F
Perigee: 1,452.4 km
Apogee: 1,478.8 km
Inclination: 74.0 °
Period: 115.1 minutes
Semi major axis: 7836 km
RCS: 0.7026 m2 (medium)
Launch date: March 6, 1981
Source: Commonwealth of Independent States (former USSR) (CIS)
Launch site: PLESETSK MISSILE AND SPACE COMPLEX (PKMTR)
aabbcc
Your satellite tracking list
Your tracking list is empty




NASA's NSSDC Master Catalog

Two Line Element Set (TLE):
1 12325U 81022F   18146.64057453 -.00000025 +00000-0 -57217-4 0  9995
2 12325 074.0302 233.4643 0016831 148.3457 005.2194 12.51444804700479
Source of the keplerian elements: AFSPC